Location: Kershaw
(34.5481°N, 80.5823°W)
Time: 17:00:26
(UTC+00:00)

Courier 1B Rocket - Pass Details

Date: 05 October 2022
Orbit: 920 x 1202 km, 28.2° (Epoch: 08 December)

Event Time Altitude Azimuth Distance (km) Brightness Sun altitude
Rises 05:17:49 0° 262° (W) 3,566 - -60.1°
Reaches altitude 10° 05:21:43 10° 239° (WSW) 2,604 - -60.1°
Maximum altitude 05:24:55 15° 207° (SSW) 2,288 - -60.0°
Drops below altitude 10° 05:28:09 10° 175° (S) 2,606 - -59.9°
Sets 05:32:04 0° 152° (SSE) 3,571 - -59.8°
